Regional Weather Roundup
Issued by NWS

Home | Current Version | Previous Version | Text Only | Print | Product List | Glossary Off
Versions: 1 2 3 4 5 6 7 8 9 10 11 12 13 14 15 16 17 18 19 20 21 22 23 24 25 26 27 28 29 30 31 32 33 34 35 36 37 38 39 40 41 42 43 44 45 46 47 48 49 50

000
ASUS43 KOAX 172102
RWRNE

WEATHER ROUNDUP FOR NEBRASKA
NATIONAL WEATHER SERVICE OMAHA NE
300 PM CST SAT FEB 17 2018

NOTES: SATELLITE DATA IS BEING USED TO AUGMENT CLOUD COVER ABOVE
       12000 FEET.
       "FAIR" INDICATES FEW OR NO CLOUDS BELOW 12,000 FEET WITH NO
       SIGNIFICANT WEATHER AND/OR OBSTRUCTIONS TO VISIBILITY.


NEZ001>004-019>022-054>056-172200-
NEBRASKA PANHANDLE

CITY           SKY/WX    TMP DP  RH WIND       PRES   REMARKS
SCOTTSBLUFF    SUNNY     50  15  24 W24G30    29.92F
ALLIANCE       PTSUNNY   49  16  26 W16G22    29.92F
CHADRON        SUNNY     37  23  56 NE6       29.93F WCI  32
GORDON         FAIR      37  21  53 SW7       29.95F WCI  31
KIMBALL        SUNNY     51  11  20 W26       29.94F
SIDNEY         SUNNY     50  11  20 NW18G28   29.96F
$$

NEZ057>060-069>072-079>082-172200-
SOUTHWEST NEBRASKA

CITY           SKY/WX    TMP DP  RH WIND       PRES   REMARKS
NORTH PLATTE   SUNNY     48  21  34 NW8       30.04F
IMPERIAL       SUNNY     50  18  28 NW7       30.04F
LEXINGTON      FAIR      46  26  46 NW8       30.06S
MCCOOK         SUNNY     48  23  37 NW10      30.07F
OGALLALA       SUNNY     49  16  26 NW13G21   30.00F
$$

NEZ005>010-023>029-035>040-094-172200-
NORTH CENTRAL NEBRASKA

CITY           SKY/WX    TMP DP  RH WIND       PRES   REMARKS
VALENTINE      MOSUNNY   40  23  50 NW8       30.01F WCI  34
AINSWORTH      PTSUNNY   37  24  60 NW12      30.03S WCI  29
BROKEN BOW     SUNNY     42  23  46 NW16      30.05R
O`NEILL        MOSUNNY   39  27  60 NW16      30.05R WCI  31
ORD            SUNNY     44  24  45 NW16      30.04S
THEDFORD       SUNNY     43  20  40 W8        30.04S
$$

NEZ041-046>049-061>064-073>077-083>087-172200-
SOUTH CENTRAL NEBRASKA

CITY           SKY/WX    TMP DP  RH WIND       PRES   REMARKS
GRAND ISLAND   SUNNY     48  24  39 NW16      30.06S
AURORA         SUNNY     48  24  38 NW16G22   30.06S
HASTINGS       SUNNY     47  21  35 NW16      30.07R
HEBRON         SUNNY     53  19  26 NW15G21   30.08R
HOLDREGE       SUNNY     48  24  38 NW14G21   30.06F
KEARNEY        SUNNY     47  24  40 NW14      30.06S
YORK           SUNNY     46  25  42 NW14      30.07R
$$

NEZ011>018-030>034-042>045-172200-
NORTHEAST NEBRASKA

CITY           SKY/WX    TMP DP  RH WIND       PRES   REMARKS
NORFOLK        PTSUNNY   39  28  64 NW13      30.04R WCI  31
ALBION         SUNNY     43  28  54 NW17      30.05R
BLAIR          MOSUNNY   45  27  49 NW14      30.05R
COLUMBUS       SUNNY     41  27  57 NW13      30.07R
FREMONT        SUNNY     45  25  46 W12       30.07R
TEKAMAH        SUNNY     41  28  60 NW18      30.06R
WAYNE          SUNNY     37  28  71 N7        30.05R WCI  31
$$

NEZ050>053-065>068-078-088>093-172200-
SOUTHEAST NEBRASKA

CITY           SKY/WX    TMP DP  RH WIND       PRES   REMARKS
LINCOLN        SUNNY     49  22  34 NW15      30.09R
OMAHA EPPLEY   MOSUNNY   47  24  40 NW20      30.05R
BEATRICE       SUNNY     53  21  29 NW14      30.07S
FALLS CITY     SUNNY     52  19  27 NW18G26   30.07R
NEBRASKA CITY  SUNNY     49  25  38 NW16      30.07R
PLATTSMOUTH    SUNNY     46  26  46 W14G22    30.06R
$$

NEZ044-045-051>053-067-172200-
OMAHA AREA

CITY           SKY/WX    TMP DP  RH WIND       PRES   REMARKS
OMAHA EPPLEY   MOSUNNY   47  24  40 NW20      30.05R
BLAIR          MOSUNNY   45  27  49 NW14      30.05R
FREMONT        SUNNY     45  25  46 W12       30.07R
MILLARD        SUNNY     48  28  45 W14       30.06R
OFFUTT AFB     SUNNY     47  25  41 NW16G25   30.06R
PLATTSMOUTH    SUNNY     46  26  46 W14G22    30.06R
WAHOO          FAIR      45  24  43 NW13      30.07R
$$




USA.gov is the U.S. government's official web portal to all federal, state and local government web resources and services.